IGO326Y VABB-VOHS

Flight info

Callsign IGO326Y
Flight time N/A
Altitude 39000
Route VEVAK2A PPN W28 PONIP NAMSA6
Aircraft A20N/M-SDE2E3FGHIRWXY/LB1

Departure

Time 2026-04-27 06:55
Airport Chhatrapati Shivaji Maharaj International Airport (VABB)

Arrival

Time N/A
Airport Rajiv Gandhi International Airport (VOHS)
Time Latitude Longitude Altitude Speed Heading
2026-04-27 06:44 19.09162 72.85485 35 ft 0 kts 358°
2026-04-27 06:46 19.09146 72.85485 35 ft 2 kts 359°
2026-04-27 06:46 19.09129 72.85485 31 ft 2 kts
2026-04-27 06:46 19.09113 72.85484 32 ft 2 kts
2026-04-27 06:47 19.09097 72.85477 31 ft 2 kts 54°
2026-04-27 06:47 19.09093 72.85464 30 ft 1 kts 87°
2026-04-27 06:47 19.09093 72.85462 30 ft 0 kts 88°
2026-04-27 06:49 19.09093 72.85464 30 ft 3 kts 88°
2026-04-27 06:50 19.09092 72.85556 34 ft 16 kts 96°
2026-04-27 06:50 19.09032 72.85625 33 ft 10 kts 123°
2026-04-27 06:50 19.09028 72.85681 33 ft 7 kts 90°
2026-04-27 06:50 19.09028 72.85758 33 ft 17 kts 90°
2026-04-27 06:51 19.09032 72.85925 34 ft 27 kts 87°
2026-04-27 06:51 19.09033 72.86124 36 ft 26 kts 89°
2026-04-27 06:51 19.09038 72.86314 38 ft 25 kts 92°
2026-04-27 06:51 19.09041 72.86504 38 ft 28 kts 88°
2026-04-27 06:52 19.09042 72.86723 38 ft 31 kts 89°
2026-04-27 06:52 19.09045 72.86902 37 ft 23 kts 90°
2026-04-27 06:52 19.09047 72.87073 37 ft 23 kts 89°
2026-04-27 06:52 19.09051 72.87241 37 ft 23 kts 89°
2026-04-27 06:53 19.09052 72.87399 37 ft 18 kts 94°
2026-04-27 06:53 19.09003 72.87454 36 ft 4 kts 176°
2026-04-27 06:53 19.08999 72.87454 37 ft 0 kts 181°
2026-04-27 06:54 19.08991 72.87453 37 ft 5 kts 181°
2026-04-27 06:54 19.08913 72.87451 37 ft 13 kts 185°
2026-04-27 06:54 19.08881 72.87413 37 ft 8 kts 264°
2026-04-27 06:54 19.08880 72.87293 38 ft 39 kts 269°
2026-04-27 06:55 19.08873 72.86755 38 ft 104 kts 269°
2026-04-27 06:55 19.08860 72.85787 46 ft 154 kts 269°
2026-04-27 06:55 19.08837 72.84690 630 ft 147 kts 267°
2026-04-27 06:55 19.08829 72.83570 1107 ft 157 kts 268°
2026-04-27 06:56 19.08825 72.82385 1628 ft 170 kts 269°
2026-04-27 06:56 19.08811 72.81003 1953 ft 204 kts 269°
2026-04-27 06:56 19.08787 72.79418 2313 ft 229 kts 271°
2026-04-27 06:56 19.08753 72.77625 2596 ft 257 kts 271°
2026-04-27 06:57 19.08708 72.75693 3226 ft 265 kts 270°
2026-04-27 06:57 19.08407 72.73749 3968 ft 272 kts 252°
2026-04-27 06:57 19.07348 72.72061 4705 ft 283 kts 224°
2026-04-27 06:57 19.05618 72.71096 5385 ft 292 kts 193°
2026-04-27 06:58 19.03588 72.71166 6163 ft 294 kts 162°
2026-04-27 06:58 18.99956 72.73105 7773 ft 293 kts 149°
2026-04-27 06:58 18.98175 72.74180 8422 ft 296 kts 153°
2026-04-27 06:59 18.96240 72.74779 8753 ft 295 kts 175°
2026-04-27 06:59 18.94183 72.74823 8830 ft 295 kts 182°
2026-04-27 06:59 18.92125 72.74725 8834 ft 295 kts 183°
2026-04-27 06:59 18.90076 72.74615 8837 ft 295 kts 183°
2026-04-27 07:00 18.88022 72.74518 8840 ft 295 kts 182°
2026-04-27 07:00 18.85961 72.74436 8839 ft 295 kts 182°
2026-04-27 07:00 18.83933 72.74365 8836 ft 295 kts 182°
2026-04-27 07:00 18.81874 72.74365 8835 ft 295 kts 174°
2026-04-27 07:01 18.79923 72.75039 8982 ft 299 kts 147°
2026-04-27 07:01 18.78472 72.76598 9718 ft 300 kts 120°
2026-04-27 07:01 18.77816 72.78678 10393 ft 308 kts 97°
2026-04-27 07:01 18.77758 72.81010 10735 ft 327 kts 89°
2026-04-27 07:02 18.77879 72.83456 11264 ft 336 kts 87°
2026-04-27 07:02 18.78015 72.85927 11931 ft 340 kts 88°
2026-04-27 07:02 18.78132 72.88440 12625 ft 344 kts 88°
2026-04-27 07:02 18.78228 72.90967 13348 ft 347 kts 89°
2026-04-27 07:03 18.78309 72.93513 14045 ft 351 kts 89°
2026-04-27 07:03 18.78399 72.96117 14697 ft 356 kts 88°
2026-04-27 07:03 18.78536 72.98744 15343 ft 362 kts 88°
2026-04-27 07:03 18.78692 73.01432 15996 ft 367 kts 87°
2026-04-27 07:04 18.78851 73.04110 16644 ft 372 kts 87°
2026-04-27 07:04 18.79014 73.06852 17293 ft 376 kts 87°
2026-04-27 07:04 18.79178 73.09633 17942 ft 381 kts 87°
2026-04-27 07:04 18.79342 73.12409 18498 ft 385 kts 87°
2026-04-27 07:05 18.79509 73.15255 19010 ft 391 kts 87°
2026-04-27 07:05 18.79678 73.18140 19523 ft 396 kts 87°
2026-04-27 07:05 18.79850 73.21077 20045 ft 401 kts 87°
2026-04-27 07:05 18.80023 73.24036 20568 ft 406 kts 87°
2026-04-27 07:06 18.80196 73.27012 21081 ft 411 kts 88°
2026-04-27 07:06 18.80373 73.30044 21588 ft 416 kts 88°
2026-04-27 07:06 18.80550 73.33108 22105 ft 421 kts 88°
2026-04-27 07:06 18.80730 73.36231 22615 ft 426 kts 88°
2026-04-27 07:07 18.80834 73.39376 23143 ft 429 kts 94°
2026-04-27 07:07 18.80399 73.42447 23572 ft 431 kts 108°
2026-04-27 07:07 18.79317 73.45405 23974 ft 433 kts 118°
2026-04-27 07:07 18.77992 73.48266 24390 ft 436 kts 120°
2026-04-27 07:08 18.76614 73.51142 24773 ft 441 kts 120°
2026-04-27 07:08 18.75238 73.54046 25173 ft 445 kts 120°
2026-04-27 07:08 18.73865 73.56991 25561 ft 449 kts 120°
2026-04-27 07:08 18.72493 73.59973 25927 ft 453 kts 120°
2026-04-27 07:09 18.71119 73.62981 26296 ft 457 kts 120°
2026-04-27 07:09 18.69753 73.65986 26662 ft 460 kts 120°
2026-04-27 07:09 18.68369 73.69035 27005 ft 464 kts 120°
2026-04-27 07:09 18.66970 73.72121 27353 ft 467 kts 120°
2026-04-27 07:10 18.65561 73.75229 27693 ft 471 kts 120°
2026-04-27 07:10 18.64140 73.78363 28028 ft 474 kts 120°
2026-04-27 07:10 18.62712 73.81509 28345 ft 478 kts 120°
2026-04-27 07:10 18.61272 73.84682 28670 ft 481 kts 120°
2026-04-27 07:11 18.59823 73.87874 28995 ft 484 kts 120°
2026-04-27 07:11 18.58361 73.91093 29306 ft 488 kts 120°
2026-04-27 07:11 18.56899 73.94333 29616 ft 491 kts 120°
2026-04-27 07:11 18.55455 73.97569 29903 ft 495 kts 120°
2026-04-27 07:12 18.53999 74.00871 30160 ft 498 kts 120°
2026-04-27 07:12 18.52548 74.04192 30446 ft 500 kts 119°
2026-04-27 07:12 18.51098 74.07532 30756 ft 501 kts 119°
2026-04-27 07:12 18.49647 74.10885 31058 ft 503 kts 119°
2026-04-27 07:13 18.48195 74.14246 31421 ft 502 kts 120°
2026-04-27 07:13 18.46753 74.17589 31845 ft 500 kts 120°
2026-04-27 07:13 18.45335 74.20878 32253 ft 498 kts 120°
2026-04-27 07:13 18.43907 74.24192 32649 ft 497 kts 120°
2026-04-27 07:14 18.42474 74.27515 33042 ft 495 kts 120°
2026-04-27 07:14 18.41044 74.30827 33429 ft 494 kts 120°
2026-04-27 07:14 18.39638 74.34080 33808 ft 493 kts 121°
2026-04-27 07:14 18.38209 74.37384 34139 ft 492 kts 121°
2026-04-27 07:15 18.36790 74.40658 34439 ft 491 kts 121°
2026-04-27 07:15 18.35373 74.43927 34767 ft 490 kts 121°
2026-04-27 07:15 18.33955 74.47192 35076 ft 489 kts 121°
2026-04-27 07:15 18.32559 74.50403 35379 ft 487 kts 121°
2026-04-27 07:16 18.31150 74.53642 35689 ft 486 kts 121°
2026-04-27 07:16 18.29740 74.56882 35979 ft 485 kts 121°
2026-04-27 07:16 18.28333 74.60110 36256 ft 484 kts 121°
2026-04-27 07:16 18.26931 74.63326 36524 ft 483 kts 121°
2026-04-27 07:17 18.25528 74.66540 36795 ft 482 kts 121°
2026-04-27 07:17 18.24131 74.69742 37068 ft 481 kts 121°
2026-04-27 07:17 18.22736 74.72954 37343 ft 480 kts 121°
2026-04-27 07:17 18.21372 74.76107 37610 ft 479 kts 121°
2026-04-27 07:18 18.19995 74.79295 37863 ft 478 kts 121°
2026-04-27 07:18 18.18618 74.82488 38123 ft 477 kts 121°
2026-04-27 07:18 18.17248 74.85662 38365 ft 476 kts 121°
2026-04-27 07:18 18.15878 74.88834 38577 ft 475 kts 122°
2026-04-27 07:19 18.14510 74.91996 38772 ft 474 kts 121°
2026-04-27 07:19 18.13144 74.95150 38873 ft 475 kts 121°
2026-04-27 07:19 18.11785 74.98280 38886 ft 476 kts 121°
2026-04-27 07:20 18.09034 75.04610 38884 ft 475 kts 121°
2026-04-27 07:20 18.06281 75.10940 38883 ft 474 kts 121°
2026-04-27 07:21 18.03554 75.17202 38874 ft 474 kts 121°
2026-04-27 07:21 18.00799 75.23522 38875 ft 474 kts 122°
2026-04-27 07:22 17.98041 75.29843 38874 ft 474 kts 122°
2026-04-27 07:22 17.95287 75.36151 38871 ft 474 kts 122°
2026-04-27 07:23 17.92553 75.42403 38869 ft 474 kts 122°
2026-04-27 07:23 17.89795 75.48704 38863 ft 474 kts 122°
2026-04-27 07:24 17.87040 75.54994 38861 ft 474 kts 122°
2026-04-27 07:24 17.84298 75.61247 38856 ft 474 kts 122°
2026-04-27 07:25 17.81535 75.67541 38854 ft 474 kts 122°
2026-04-27 07:25 17.78771 75.73829 38852 ft 474 kts 122°
2026-04-27 07:26 17.76003 75.80120 38852 ft 474 kts 122°
2026-04-27 07:26 17.73232 75.86412 38852 ft 475 kts 122°
2026-04-27 07:27 17.70474 75.92668 38852 ft 475 kts 122°
2026-04-27 07:27 17.67688 75.98978 38852 ft 475 kts 122°
2026-04-27 07:28 17.64914 76.05226 38852 ft 475 kts 122°
2026-04-27 07:28 17.62578 76.10458 38851 ft 476 kts 122°
2026-04-27 07:29 17.59767 76.16746 38849 ft 476 kts 122°
2026-04-27 07:29 17.56492 76.24062 38847 ft 476 kts 122°
2026-04-27 07:30 17.54148 76.29296 38848 ft 476 kts 122°
2026-04-27 07:30 17.51329 76.35586 38848 ft 476 kts 122°
2026-04-27 07:31 17.48535 76.41818 38848 ft 474 kts 122°
2026-04-27 07:31 17.45715 76.48100 38850 ft 474 kts 122°
2026-04-27 07:32 17.42906 76.54347 38851 ft 474 kts 122°
2026-04-27 07:32 17.40108 76.60562 38831 ft 475 kts 122°
2026-04-27 07:33 17.37344 76.66722 38630 ft 457 kts 122°
2026-04-27 07:33 17.36005 76.69720 38470 ft 449 kts 122°
2026-04-27 07:33 17.34705 76.72628 38211 ft 442 kts 122°
2026-04-27 07:33 17.33406 76.75524 37898 ft 437 kts 122°
2026-04-27 07:34 17.32149 76.78412 37549 ft 437 kts 116°
2026-04-27 07:34 17.31416 76.81540 37168 ft 444 kts 101°
2026-04-27 07:34 17.31179 76.84755 36834 ft 442 kts 96°
2026-04-27 07:34 17.31059 76.87965 36510 ft 439 kts 96°
2026-04-27 07:35 17.30955 76.91145 36190 ft 436 kts 95°
2026-04-27 07:35 17.30844 76.94300 35871 ft 432 kts 95°
2026-04-27 07:35 17.30727 76.97406 35550 ft 429 kts 95°
2026-04-27 07:35 17.30604 77.00511 35235 ft 426 kts 95°
2026-04-27 07:36 17.30477 77.03601 34923 ft 423 kts 95°
2026-04-27 07:36 17.30348 77.06671 34611 ft 420 kts 95°
2026-04-27 07:36 17.30226 77.09727 34315 ft 418 kts 94°
2026-04-27 07:36 17.30120 77.12714 34026 ft 415 kts 94°
2026-04-27 07:37 17.30005 77.15782 33713 ft 413 kts 94°
2026-04-27 07:37 17.29887 77.18743 32981 ft 416 kts 94°
2026-04-27 07:37 17.29667 77.21904 29374 ft 455 kts 97°
2026-04-27 07:37 17.29494 77.24318 24460 ft 453 kts 95°
2026-04-27 07:44 17.29203 77.27920 20305 ft 557 kts 96°
2026-04-27 07:44 17.28832 77.31690 21531 ft 498 kts 97°
2026-04-27 07:44 17.28468 77.35078 22899 ft 443 kts 97°